Weather History for Massena, NY

Change the Weather History Date:

Saturday, February 22, 2014

  Actual Average Record
Temperature  
Mean Temperature 35 °F 20 °F  
Max Temperature 43 °F 30 °F 57 °F (1981)
Min Temperature 26 °F 9 °F -19 °F (1972)
Degree Days  
Heating Degree Days 30 46  
Month to date heating degree days 1080 1058  
Since 1 July heating degree days 5862 5721  
Moisture  
Dew Point 19 °F    
Average Humidity 49    
Maximum Humidity 64    
Minimum Humidity 34    
Precipitation  
Precipitation 0.00 in 0.07 in 0.57 in (1976)
Month to date precipitation 1.28 1.35  
Year to date precipitation 2.74 3.53  
Sea Level Pressure  
Sea Level Pressure 29.75 in    
Wind  
Wind Speed 22 mph (SW)    
Max Wind Speed 46 mph    
Max Gust Speed 60 mph    
Visibility 10 miles    
Events      
T = Trace of Precipitation, MM = Missing Value Source: NWS Daily Summary

Daily Weather History Graph

Daily Weather History Graph

Search for Another Location

Airport:

Trip Planner

Search our weather history database for the weather conditions in past years. The results will help you decide how hot, cold, wet, or windy it might be!

Date:

Astronomy

Feb. 22, 2014 Rise Set
Actual Time 6:49 AM EST 5:37 PM EST
Civil Twilight 6:19 AM EST 6:07 PM EST
Nautical Twilight 5:45 AM EST 6:41 PM EST
Astronomical Twilight 5:11 AM EST 7:15 PM EST
Moon 12:47 AM EST (2/22) 10:39 AM EST (2/22)
Length of Visible Light 11h 47m
Length of Day
10h 48m
Waning Gibbous, 50% of the Moon is Illuminated
Feb 22
Waning Gibbous
Feb 22
Last Quarter
Mar 1
New
Mar 8
First Quarter
Mar 16
Full

Hourly Weather History & Observations

Time (EST) Temp. Windchill Dew Point Humidity Pressure Visibility Wind Dir Wind Speed Gust Speed Precip Events Conditions
12:53 AM 35.1 °F 26.4 °F 25.0 °F 67% 29.70 in 10.0 mi SW 12.7 mph 21.9 mph N/A   Scattered Clouds
1:53 AM 37.0 °F 25.1 °F 21.9 °F 54% 29.71 in 10.0 mi SW 26.5 mph 42.6 mph N/A   Clear
2:53 AM 36.0 °F 23.9 °F 19.9 °F 52% 29.72 in 10.0 mi SW 25.3 mph 39.1 mph N/A   Clear
3:53 AM 35.1 °F 23.0 °F 19.9 °F 54% 29.72 in 10.0 mi SW 24.2 mph 40.3 mph N/A   Clear
4:53 AM 34.0 °F 21.3 °F 19.0 °F 54% 29.73 in 10.0 mi SW 25.3 mph 38.0 mph N/A   Clear
5:53 AM 34.0 °F 21.0 °F 19.9 °F 56% 29.73 in 10.0 mi SW 26.5 mph 36.8 mph N/A   Clear
6:53 AM 34.0 °F 22.7 °F 19.9 °F 56% 29.72 in 10.0 mi SW 19.6 mph 29.9 mph N/A   Clear
7:53 AM 35.1 °F 24.8 °F 19.0 °F 52% 29.72 in 10.0 mi SSW 17.3 mph 24.2 mph N/A   Scattered Clouds
8:53 AM 39.0 °F 28.3 °F 23.0 °F 53% 29.72 in 10.0 mi SSW 24.2 mph 39.1 mph N/A   Clear
9:53 AM 39.0 °F 30.3 °F 21.9 °F 50% 29.70 in 10.0 mi SSW 16.1 mph 27.6 mph N/A   Overcast
10:53 AM 41.0 °F 30.0 °F 23.0 °F 49% 29.68 in 10.0 mi SSW 28.8 mph 40.3 mph N/A   Clear
11:53 AM 43.0 °F 31.5 °F 21.9 °F 43% 29.68 in 10.0 mi SW 36.8 mph 52.9 mph N/A   Partly Cloudy
12:53 PM 43.0 °F 30.5 °F 18.0 °F 37% 29.66 in 10.0 mi SW 44.9 mph 59.8 mph N/A   Clear
1:53 PM 41.0 °F 28.5 °F 19.0 °F 41% 29.67 in 10.0 mi SW 39.1 mph 52.9 mph N/A   Clear
2:53 PM 41.0 °F 30.7 °F 17.1 °F 38% 29.70 in 10.0 mi SW 25.3 mph 41.4 mph N/A   Clear
3:53 PM 39.9 °F 29.0 °F 14.0 °F 35% 29.73 in 10.0 mi SW 26.5 mph 48.3 mph N/A   Clear
4:53 PM 37.9 °F 26.1 °F 17.1 °F 43% 29.75 in 10.0 mi SW 27.6 mph 44.9 mph N/A   Clear
5:53 PM 35.1 °F 24.1 °F 17.1 °F 48% 29.78 in 10.0 mi SW 19.6 mph 31.1 mph N/A   Clear
6:53 PM 33.1 °F 22.6 °F 16.0 °F 50% 29.82 in 10.0 mi SW 16.1 mph 25.3 mph N/A   Clear
7:53 PM 32.0 °F 23.0 °F 15.1 °F 50% 29.84 in 10.0 mi SW 11.5 mph 21.9 mph N/A   Clear
8:53 PM 32.0 °F 22.5 °F 18.0 °F 56% 29.86 in 10.0 mi SW 12.7 mph - N/A   Clear
9:53 PM 32.0 °F 23.0 °F 21.0 °F 64% 29.88 in 10.0 mi SW 11.5 mph - N/A   Clear
10:53 PM 30.0 °F 23.2 °F 19.9 °F 66% 29.88 in 10.0 mi SW 6.9 mph - N/A   Clear
11:53 PM 28.0 °F 21.7 °F 18.0 °F 66% 29.88 in 10.0 mi SSW 5.8 mph - N/A   Clear